{"data":{"norad_id":67317,"epoch":"2026-05-24T23:42:34.795872Z","epoch_age_seconds":76374,"freshness":"FRESH","line1":"1 67317U 26002N   26144.98790273  .00036200  00000+0  13175-2 0  9995","line2":"2 67317  43.0010 254.7323 0001624 291.1084  68.9594 15.27606358 22905","mean_motion":15.27606358,"eccentricity":0.0001624,"inclination_deg":43.001,"raan_deg":254.7323,"arg_perigee_deg":291.1084,"mean_anomaly_deg":68.9594,"bstar":0.0013175,"rev_number":2290,"period_min":94.265122193214,"perigee_km":481.85592803555,"apogee_km":484.08441564497,"semimajor_km":6861.1071718403,"source":"CELESTRAK","updated_at":"2026-05-25T13:38:21.517178Z"}}